Location: Unspecified
(61.5997°N, 0.0000°E)
Time: 02:38:16
(UTC+00:00)

IRIDIUM 120 - Visible Passes

Search period start: 04 April 2026 00:00
Search period end: 14 April 2026 00:00
Orbit: 776 x 779 km, 86.4° (Epoch: 29 March)

Date Brightness Start Highest point End Pass type
(mag) Time Alt. Az. Time Alt. Az. Time Alt. Az.
4 Apr ? 00:29:53 10° NNW 00:32:38 15° WNW 00:35:24 10° W visible
4 Apr ? 20:33:41 10° N 20:38:07 27° ENE 20:41:19 16° ESE visible
4 Apr ? 22:14:14 10° N 22:19:29 81° W 22:21:48 34° S visible
4 Apr ? 23:55:42 10° NNW 23:59:31 21° WNW 00:02:17 14° WSW visible
5 Apr ? 20:00:22 10° N 20:04:10 20° ENE 20:07:56 10° ESE visible
5 Apr ? 21:40:39 10° N 21:45:54 70° E 21:48:33 30° SSE visible
5 Apr ? 23:21:49 10° NNW 23:26:18 30° WNW 23:29:02 19° WSW visible
6 Apr ? 21:07:08 10° N 21:12:13 48° ENE 21:15:20 22° SE visible
6 Apr ? 22:48:02 10° NNW 22:52:59 43° W 22:55:48 23° SW visible
7 Apr ? 00:30:44 10° NW 00:32:27 12° WNW 00:34:09 10° W visible
7 Apr ? 20:33:41 10° N 20:38:26 33° ENE 20:42:06 15° SE visible
7 Apr ? 22:14:23 10° N 22:19:34 64° W 22:22:35 25° SSW visible
7 Apr ? 23:56:08 10° NNW 23:59:22 17° WNW 00:02:37 10° WSW visible
8 Apr ? 20:00:19 10° N 20:04:32 24° ENE 20:08:44 10° ESE visible
8 Apr ? 21:40:46 10° N 21:46:03 87° E 21:49:22 23° S visible
8 Apr ? 23:22:06 10° NNW 23:26:13 24° WNW 23:29:52 12° WSW visible
9 Apr ? 21:07:13 10° N 21:12:25 60° ENE 21:16:11 19° SSE visible
9 Apr ? 22:48:16 10° NNW 22:52:58 34° W 22:56:39 15° SW visible
10 Apr ? 20:33:43 10° N 20:38:42 41° ENE 20:42:59 13° SE visible
10 Apr ? 22:14:32 10° NNW 22:19:35 50° W 22:23:28 17° SSW visible
10 Apr ? 23:56:44 10° NW 23:59:12 13° WNW 00:01:39 10° W visible
11 Apr ? 20:00:18 10° N 20:04:51 29° ENE 20:09:24 10° SE visible
11 Apr ? 21:40:54 10° N 21:46:09 75° W 21:50:17 16° S visible
11 Apr ? 23:22:28 10° NNW 23:26:06 19° WNW 23:29:43 10° WSW visible
12 Apr ? 21:07:18 10° N 21:12:35 76° E 21:17:07 14° SSE visible
12 Apr ? 22:48:31 10° NNW 22:52:54 28° WNW 22:57:16 10° SW visible
13 Apr ? 20:33:47 10° N 20:38:55 51° ENE 20:43:58 10° SSE visible
13 Apr ? 22:14:44 10° NNW 22:19:36 40° W 22:24:26 10° SSW visible
